Change the Weather History Date:

Monday, October 3, 2011

  Actual Average (KLJF) Record (KLJF)
Temperature  
Mean Temperature 63 °F -  
Max Temperature 82 °F 67 °F 86 °F (1992)
Min Temperature 44 °F 41 °F 21 °F (1989)
Degree Days  
Heating Degree Days 2    
Growing Degree Days 13 (Base 50)    
Moisture  
Dew Point 38 °F    
Average Humidity 45    
Maximum Humidity 81    
Minimum Humidity 19    
Precipitation  
Precipitation 0.00 in - - ()
Sea Level Pressure  
Sea Level Pressure 30.14 in    
Wind  
Wind Speed 5 mph (SSE)    
Max Wind Speed 17 mph    
Max Gust Speed 23 mph    
Visibility 10 miles    
Events      
Averages and records for this station are not official NWS values.
T = Trace of Precipitation, MM = Missing Value Source: NWS Daily Summary

Daily Weather History Graph

Daily Weather History Graph

Search for Another Location

Airport or City:

Trip Planner

Search our weather history database for the weather conditions in past years. The results will help you decide how hot, cold, wet, or windy it might be!

Date:

Astronomy

Oct. 03, 2011 Rise Set
Actual Time 7:20 AM CDT 6:57 PM CDT
Civil Twilight 6:51 AM CDT 7:26 PM CDT
Nautical Twilight 6:17 AM CDT 8:00 PM CDT
Astronomical Twilight 5:42 AM CDT 8:35 PM CDT
Moon 2:33 PM CDT (10/3) 11:47 PM CDT (10/3)
Length of Visible Light 12h 35m
Length of Day
11h 36m
Waxing Crescent, 45% of the Moon is Illuminated
Oct 3
Waxing Crescent
Oct 3
First Quarter
Oct 11
Full
Oct 19
Last Quarter
Oct 26
New

Hourly Weather History & Observations

Time (CDT) Temp. Windchill Dew Point Humidity Pressure Visibility Wind Dir Wind Speed Gust Speed Precip Events Conditions
12:15 AM 53.6 °F - 39.2 °F 58% 30.14 in 10.0 mi SE 4.6 mph - N/A   Clear
12:35 AM 53.6 °F - 39.2 °F 58% 30.14 in 10.0 mi SE 4.6 mph - N/A   Clear
12:55 AM 53.6 °F - 39.2 °F 58% 30.14 in 10.0 mi SE 4.6 mph - N/A   Clear
1:15 AM 53.6 °F - 39.2 °F 58% 30.15 in 10.0 mi SE 4.6 mph - N/A   Clear
1:35 AM 53.6 °F - 39.2 °F 58% 30.15 in 10.0 mi SSE 4.6 mph - N/A   Clear
1:55 AM 53.6 °F - 39.2 °F 58% 30.15 in 10.0 mi Calm Calm - N/A   Clear
2:15 AM 57.2 °F - 39.2 °F 51% 30.15 in 10.0 mi Calm Calm - N/A   Clear
2:35 AM 55.4 °F - 39.2 °F 54% 30.15 in 10.0 mi Calm Calm - N/A   Clear
2:55 AM 55.4 °F - 39.2 °F 54% 30.15 in 10.0 mi Calm Calm - N/A   Clear
3:15 AM 50.0 °F - 39.2 °F 66% 30.15 in 10.0 mi SE 3.5 mph - N/A   Clear
3:35 AM 48.2 °F - 39.2 °F 71% 30.14 in 10.0 mi ESE 4.6 mph - N/A   Clear
3:55 AM 48.2 °F - 39.2 °F 71% 30.15 in 10.0 mi ESE 4.6 mph - N/A   Clear
4:14 AM 48.2 °F - 39.2 °F 71% 30.15 in 10.0 mi SE 5.8 mph - N/A   Clear
4:35 AM 48.2 °F - 39.2 °F 71% 30.15 in 10.0 mi SE 4.6 mph - N/A   Clear
4:55 AM 48.2 °F - 39.2 °F 71% 30.15 in 10.0 mi SE 4.6 mph - N/A   Clear
5:14 AM 48.2 °F - 39.2 °F 71% 30.15 in 10.0 mi SE 4.6 mph - N/A   Clear
5:35 AM 46.4 °F 44.3 °F 39.2 °F 76% 30.16 in 10.0 mi SE 4.6 mph - N/A   Clear
5:55 AM 48.2 °F - 39.2 °F 71% 30.16 in 10.0 mi ESE 3.5 mph - N/A   Clear
6:14 AM 46.4 °F - 39.2 °F 76% 30.16 in 10.0 mi Calm Calm - N/A   Clear
6:35 AM 46.4 °F 44.3 °F 39.2 °F 76% 30.16 in 10.0 mi ESE 4.6 mph - N/A   Clear
6:55 AM 44.6 °F 41.4 °F 39.2 °F 81% 30.17 in 10.0 mi ESE 5.8 mph - N/A   Clear
7:14 AM 44.6 °F 41.4 °F 39.2 °F 81% 30.17 in 10.0 mi SE 5.8 mph - N/A   Clear
7:35 AM 46.4 °F 43.5 °F 39.2 °F 76% 30.17 in 10.0 mi ESE 5.8 mph - N/A   Clear
8:14 AM 50.0 °F - 41.0 °F 71% 30.17 in 10.0 mi SE 5.8 mph - N/A   Clear
8:35 AM 51.8 °F - 41.0 °F 67% 30.17 in 10.0 mi SE 5.8 mph - N/A   Clear
8:55 AM 53.6 °F - 42.8 °F 67% 30.17 in 10.0 mi SE 5.8 mph - N/A   Clear
9:15 AM 57.2 °F - 42.8 °F 59% 30.17 in 10.0 mi SSE 6.9 mph - N/A   Clear
9:55 AM 62.6 °F - 41.0 °F 45% 30.18 in 10.0 mi SSE 3.5 mph - N/A   Clear
10:35 AM 66.2 °F - 39.2 °F 37% 30.18 in 7.0 mi South 4.6 mph - N/A   Clear
10:55 AM 69.8 °F - 41.0 °F 35% 30.18 in 7.0 mi SSE 4.6 mph - N/A   Clear
11:15 AM 71.6 °F - 41.0 °F 33% 30.17 in 10.0 mi South 5.8 mph - N/A   Clear
11:35 AM 73.4 °F - 41.0 °F 31% 30.16 in 10.0 mi South 4.6 mph - N/A   Clear
11:55 AM 75.2 °F - 41.0 °F 29% 30.16 in 10.0 mi South 6.9 mph - N/A   Clear
12:15 PM 77.0 °F - 41.0 °F 28% 30.15 in 10.0 mi South 5.8 mph - N/A   Clear
1:15 PM 78.8 °F - 39.2 °F 24% 30.15 in 10.0 mi South 8.1 mph 19.6 mph N/A   Clear
1:35 PM 80.6 °F - 39.2 °F 23% 30.14 in 7.0 mi SSW 5.8 mph 18.4 mph N/A   Clear
1:54 PM 80.6 °F - 39.2 °F 23% 30.13 in 10.0 mi SSE 11.5 mph 17.3 mph N/A   Clear
2:15 PM 82.4 °F - 39.2 °F 21% 30.12 in 5.0 mi SSE 8.1 mph 16.1 mph N/A   Haze
2:35 PM 82.4 °F - 39.2 °F 21% 30.12 in 7.0 mi SSE 10.4 mph 19.6 mph N/A   Clear
2:54 PM 82.4 °F - 37.4 °F 20% 30.12 in 10.0 mi SSE 12.7 mph 23.0 mph N/A   Clear
3:15 PM 82.4 °F - 37.4 °F 20% 30.11 in 10.0 mi SSE 17.3 mph - N/A   Clear
3:34 PM 82.4 °F - 37.4 °F 20% 30.11 in 10.0 mi SSE 12.7 mph 19.6 mph N/A   Clear
3:55 PM 82.4 °F - 37.4 °F 20% 30.11 in 10.0 mi SSE 11.5 mph 19.6 mph N/A   Clear
4:15 PM 82.4 °F - 37.4 °F 20% 30.11 in 10.0 mi SSE 13.8 mph - N/A   Clear
4:35 PM 82.4 °F - 35.6 °F 19% 30.11 in 10.0 mi South 10.4 mph 19.6 mph N/A   Clear
5:15 PM 80.6 °F - 35.6 °F 20% 30.11 in 10.0 mi SSE 10.4 mph 18.4 mph N/A   Clear
5:34 PM 80.6 °F - 35.6 °F 20% 30.11 in 10.0 mi SSE 13.8 mph - N/A   Clear
5:55 PM 78.8 °F - 35.6 °F 21% 30.11 in 10.0 mi SSE 10.4 mph 16.1 mph N/A   Clear
6:15 PM 78.8 °F - 35.6 °F 21% 30.11 in 10.0 mi SSE 8.1 mph - N/A   Clear
6:35 PM 75.2 °F - 35.6 °F 24% 30.11 in 10.0 mi SE 6.9 mph - N/A   Clear
6:55 PM 71.6 °F - 35.6 °F 27% 30.11 in 10.0 mi SE 6.9 mph - N/A   Clear
7:35 PM 66.2 °F - 35.6 °F 32% 30.12 in 10.0 mi SE 5.8 mph - N/A   Clear
7:55 PM 64.4 °F - 35.6 °F 34% 30.12 in 10.0 mi SE 8.1 mph - N/A   Clear
8:35 PM 62.6 °F - 35.6 °F 37% 30.13 in 10.0 mi SE 8.1 mph - N/A   Clear
8:55 PM 62.6 °F - 35.6 °F 37% 30.13 in 10.0 mi SE 8.1 mph - N/A   Clear
9:15 PM 62.6 °F - 35.6 °F 37% 30.13 in 10.0 mi SE 8.1 mph - N/A   Clear
9:35 PM 60.8 °F - 35.6 °F 39% 30.13 in 10.0 mi SE 6.9 mph - N/A   Clear
9:55 PM 60.8 °F - 35.6 °F 39% 30.13 in 10.0 mi SE 5.8 mph - N/A   Clear
10:14 PM 60.8 °F - 37.4 °F 42% 30.13 in 10.0 mi SSE 5.8 mph - N/A   Clear
10:35 PM 60.8 °F - 37.4 °F 42% 30.13 in 10.0 mi SSE 6.9 mph - N/A   Clear
10:55 PM 62.6 °F - 37.4 °F 39% 30.13 in 10.0 mi SSE 8.1 mph - N/A   Clear
11:14 PM 62.6 °F - 37.4 °F 39% 30.13 in 10.0 mi SSE 9.2 mph - N/A   Clear
11:35 PM 62.6 °F - 37.4 °F 39% 30.13 in 10.0 mi SSE 6.9 mph - N/A   Clear
11:55 PM 62.6 °F - 37.4 °F 39% 30.13 in 10.0 mi SSE 6.9 mph - N/A   Clear